KD9JB-1 Weather Reports


time (UTC)temp
F
wind
direction
speed
knots
gust
knots
rain 1hr
in
rain 24hr
in
rain mn
in
humidity
%
barometer
mb
20260906104645 74 35 0.9 1.7 0.00 0.00 0.00 92 1012.6
20260906104145 74 331 0.9 2.6 0.00 0.00 0.00 92 1012.6
20260906103645 74 46 0.9 2.6 0.00 0.00 0.00 92 1012.6
20260906103145 74 46 0.9 1.7 0.00 0.00 0.00 92 1012.5
20260906102645 74 18 0.9 2.6 0.00 0.00 0.00 92 1012.4
20260906102145 74 9 0.9 2.6 0.00 0.00 0.00 91 1012.3
20260906101645 74 328 1.7 3.5 0.00 0.00 0.00 91 1012.2
20260906101145 74 46 1.7 2.6 0.00 0.00 0.00 91 1012.2
20260906100645 74 23 1.7 2.6 0.00 0.00 0.00 91 1012.2
20260906100145 74 326 1.7 4.3 0.00 0.00 0.00 91 1012.2
20260906095645 74 56 1.7 3.5 0.00 0.00 0.00 91 1012.0
20260906095145 74 1 1.7 2.6 0.00 0.00 0.00 91 1012.0
20260906094645 74 350 1.7 2.6 0.00 0.00 0.00 91 1012.1
20260906094145 74 41 0.9 2.6 0.00 0.00 0.00 91 1012.0
20260906093645 75 28 0.9 3.5 0.00 0.00 0.00 90 1012.0
20260906093145 75 346 0.9 3.5 0.00 0.00 0.00 90 1012.0
20260906092645 75 51 1.7 2.6 0.00 0.00 0.00 90 1011.9
20260906092145 75 309 1.7 2.6 0.00 0.00 0.00 90 1011.9
20260906091645 75 8 0.9 4.3 0.00 0.00 0.00 90 1011.9
20260906091146 75 340 0.9 3.5 0.00 0.00 0.00 90 1011.7
20260906090645 75 23 1.7 3.5 0.00 0.00 0.00 90 1011.8
20260906090145 75 32 1.7 3.5 0.00 0.00 0.00 89 1011.8
20260906085645 75 18 1.7 3.5 0.00 0.00 0.00 89 1011.7
20260906085145 75 35 1.7 4.3 0.00 0.00 0.00 89 1011.7
20260906084645 75 1 1.7 2.6 0.00 0.00 0.00 89 1011.7
20260906084145 76 1 1.7 2.6 0.00 0.00 0.00 89 1011.7
20260906083645 76 344 1.7 3.5 0.00 0.00 0.00 88 1011.7
20260906083145 76 324 0.9 3.5 0.00 0.00 0.00 88 1011.7
20260906082645 76 229 1.7 2.6 0.00 0.00 0.00 88 1011.7
20260906082145 76 40 1.7 4.3 0.00 0.00 0.00 88 1011.7
20260906081645 76 46 1.7 3.5 0.00 0.00 0.00 88 1011.8
20260906081145 76 331 1.7 4.3 0.00 0.00 0.00 88 1011.7
20260906080645 76 20 0.9 2.6 0.00 0.00 0.00 88 1011.7
20260906080146 77 20 0.9 2.6 0.00 0.00 0.00 88 1011.7
20260906075646 77 89 1.7 3.5 0.00 0.00 0.00 88 1011.7
20260906075145 77 46 1.7 2.6 0.00 0.00 0.00 89 1011.6
20260906074646 77 53 0.9 2.6 0.00 0.00 0.00 89 1011.4
20260906074146 77 46 1.7 3.5 0.00 0.00 0.00 89 1011.5
20260906073646 77 53 1.7 2.6 0.00 0.00 0.00 88 1011.4
20260906073146 77 46 0.9 2.6 0.00 0.00 0.00 88 1011.4
20260906072646 77 56 0.9 3.5 0.00 0.00 0.00 88 1011.4
20260906072146 77 340 1.7 2.6 0.00 0.00 0.00 88 1011.5
20260906071646 77 35 1.7 2.6 0.00 0.00 0.00 88 1011.4
20260906071147 77 9 1.7 2.6 0.00 0.00 0.00 88 1011.5
20260906070646 77 23 1.7 2.6 0.00 0.00 0.00 87 1011.5
20260906070146 78 1 0.9 3.5 0.00 0.00 0.00 86 1011.5
20260906065646 78 32 0.9 3.5 0.00 0.00 0.00 86 1011.5
20260906065146 78 20 0.9 2.6 0.00 0.00 0.00 86 1011.6
20260906064646 78 28 0.9 2.6 0.00 0.00 0.00 86 1011.6
20260906064146 78 51 0.9 2.6 0.00 0.00 0.00 86 1011.7
20260906063646 78 46 0.9 1.7 0.00 0.00 0.00 85 1011.7
20260906063146 78 28 0.9 2.6 0.00 0.00 0.00 85 1011.7
20260906062646 78 46 0.9 2.6 0.00 0.00 0.00 85 1011.8
20260906062146 79 13 0.9 3.5 0.00 0.00 0.00 84 1011.8
20260906061646 79 89 0.9 2.6 0.00 0.00 0.00 84 1011.9
20260906061146 78 28 0.9 2.6 0.00 0.00 0.00 84 1011.9
20260906060646 78 41 0.9 4.3 0.00 0.00 0.00 84 1012.0
20260906060146 78 35 1.7 3.5 0.00 0.00 0.00 83 1012.1
20260906055646 79 338 0.9 4.3 0.00 0.00 0.00 83 1012.0
20260906055146 79 40 0.9 2.6 0.00 0.00 0.00 83 1012.0
20260906054646 79 344 0.9 1.7 0.00 0.00 0.00 83 1012.0
20260906054146 79 336 0.9 2.6 0.00 0.00 0.00 83 1012.0
20260906053646 79 15 0.9 2.6 0.00 0.00 0.00 83 1012.1
20260906053146 79 46 0.9 1.7 0.00 0.00 0.00 82 1012.1
20260906052646 79 46 0.9 1.7 0.00 0.00 0.00 82 1012.1
20260906052146 79 1 0.9 2.6 0.00 0.00 0.00 81 1012.2
20260906051646 79 28 0.9 2.6 0.00 0.00 0.00 81 1012.1
20260906051146 79 46 0.9 2.6 0.00 0.00 0.00 80 1012.0
20260906050646 79 28 0.9 2.6 0.00 0.00 0.00 80 1011.9
20260906050146 79 56 0.9 2.6 0.00 0.00 0.00 81 1011.9
20260906045646 79 1 0.9 1.7 0.00 0.00 0.00 82 1012.0
20260906045146 79 46 0.9 1.7 0.00 0.00 0.00 82 1012.0
20260906044646 78 63 0.9 1.7 0.00 0.00 0.00 82 1012.0
20260906044146 78 89 0.9 1.7 0.00 0.00 0.00 83 1012.0
20260906043646 78 28 0.0 1.7 0.00 0.00 0.00 84 1011.9
20260906043146 78 46 0.9 1.7 0.00 0.00 0.00 84 1011.9
20260906042646 78 89 1.7 4.3 0.00 0.00 0.00 85 1011.9
20260906042146 78 336 1.7 4.3 0.00 0.00 0.00 86 1011.8
20260906041646 77 1 2.6 4.3 0.00 0.00 0.00 86 1011.8
20260906041146 78 321 2.6 4.3 0.00 0.00 0.00 85 1011.6
20260906040646 78 8 1.7 3.5 0.00 0.00 0.00 84 1011.5
20260906040146 78 347 0.9 1.7 0.00 0.00 0.00 83 1011.5
20260906035646 79 347 0.9 1.7 0.00 0.00 0.00 82 1011.4
20260906035146 79 46 0.9 1.7 0.00 0.00 0.00 82 1011.3
20260906034646 79 46 0.9 1.7 0.00 0.00 0.00 82 1011.2
20260906034146 79 46 0.0 1.7 0.00 0.00 0.00 82 1011.1
20260906033646 79 46 0.9 1.7 0.00 0.00 0.00 82 1011.2
20260906033146 79 269 0.9 1.7 0.00 0.00 0.00 81 1011.2
20260906032646 79 148 0.9 1.7 0.00 0.00 0.00 82 1011.1
20260906032146 79 46 0.9 1.7 0.00 0.00 0.00 81 1011.2
20260906031646 79 46 0.9 0.9 0.00 0.00 0.00 81 1011.2
20260906031146 79 56 0.9 1.7 0.00 0.00 0.00 80 1011.2
20260906030646 80 269 0.0 1.7 0.00 0.00 0.00 79 1011.2
20260906030146 80 1 0.9 0.9 0.00 0.00 0.00 79 1011.1
20260906025646 81 1 0.9 1.7 0.00 0.00 0.00 78 1011.0
20260906025146 81 340 0.9 0.9 0.00 0.00 0.00 77 1010.9
20260906024646 81 1 0.9 0.9 0.00 0.00 0.00 77 1010.9
20260906024146 81 46 0.9 1.7 0.00 0.00 0.00 77 1010.9
20260906023646 81 76 0.9 1.7 0.00 0.00 0.00 77 1010.8
20260906023146 81 28 0.0 1.7 0.00 0.00 0.00 77 1010.8
20260906022646 81 46 0.0 1.7 0.00 0.00 0.00 76 1010.7
20260906022146 81 46 0.9 0.9 0.00 0.00 0.00 76 1010.9
20260906021646 81 89 0.9 1.7 0.00 0.00 0.00 76 1010.8
20260906021146 81 152 0.0 0.9 0.00 0.00 0.00 75 1010.6
20260906020646 82 331 0.0 1.7 0.00 0.00 0.00 75 1010.7
20260906020146 82 63 0.9 1.7 0.00 0.00 0.00 75 1010.7
20260906015646 82 46 0.0 1.7 0.00 0.00 0.00 74 1010.6
20260906015146 82 46 0.0 1.7 0.00 0.00 0.00 74 1010.6
20260906014646 82 1 0.0 1.7 0.00 0.00 0.00 73 1010.6
20260906014146 83 0 0.9 0.9 0.00 0.00 0.00 72 1010.4
20260906013646 83 314 0.9 1.7 0.00 0.00 0.00 72 1010.4
20260906013146 83 344 0.0 1.7 0.00 0.00 0.00 71 1010.3
20260906012646 84 1 0.9 0.9 0.00 0.00 0.00 70 1010.2
20260906012146 84 269 0.9 1.7 0.00 0.00 0.00 68 1010.2
20260906011647 84 223 0.9 2.6 0.00 0.00 0.00 67 1010.2
20260906011146 84 72 0.9 1.7 0.00 0.00 0.00 67 1010.1
20260906010646 85 223 0.9 1.7 0.00 0.00 0.00 67 1010.0
20260906010146 85 142 0.9 2.6 0.00 0.00 0.00 66 1010.0
20260906005646 85 63 0.9 1.7 0.00 0.00 0.00 65 1009.9
20260906005146 86 135 1.7 2.6 0.00 0.00 0.00 65 1010.0
20260906004646 86 89 1.7 2.6 0.00 0.00 0.00 64 1009.8
20260906004146 86 89 1.7 3.5 0.00 0.00 0.00 64 1009.9
20260906003646 86 89 0.9 2.6 0.00 0.00 0.00 66 1009.8
20260906003146 86 46 0.9 1.7 0.00 0.00 0.00 66 1009.8
20260906002646 86 1 0.0 1.7 0.00 0.00 0.00 67 1009.9
20260906002146 87 46 0.9 0.9 0.00 0.00 0.00 66 1009.9
20260906001646 87 89 0.9 1.7 0.00 0.00 0.00 65 1009.9
20260906001146 87 79 0.9 1.7 0.00 0.00 0.00 64 1010.0
20260906000646 88 117 1.7 2.6 0.00 0.00 0.00 64 1010.1
20260906000146 88 89 1.7 2.6 0.00 0.00 0.00 63 1010.0
20260905235646 89 60 1.7 3.5 0.00 0.00 0.00 61 1010.1
20260905235146 89 152 1.7 3.5 0.00 0.00 0.00 62 1010.1
20260905234646 89 89 1.7 3.5 0.00 0.00 0.00 62 1010.1
20260905234146 90 119 1.7 4.3 0.00 0.00 0.00 61 1010.1
20260905233646 90 79 2.6 3.5 0.00 0.00 0.00 60 1010.0
20260905233146 90 84 3.5 5.2 0.00 0.00 0.00 59 1010.0
20260905232646 91 86 2.6 6.1 0.00 0.00 0.00 57 1009.9
20260905232146 91 95 2.6 7.8 0.00 0.00 0.00 55 1010.0
20260905231646 92 63 2.6 5.2 0.00 0.00 0.00 55 1010.0
20260905231146 92 83 2.6 6.1 0.00 0.00 0.00 55 1009.9
20260905230646 94 98 1.7 7.8 0.00 0.00 0.00 53 1009.9
20260905230146 96 68 1.7 2.6 0.00 0.00 0.00 49 1009.7
20260905225646 97 28 0.9 3.5 0.00 0.00 0.00 49 1009.6
20260905225146 97 63 1.7 3.5 0.00 0.00 0.00 48 1009.5
20260905224646 98 15 1.7 3.5 0.00 0.00 0.00 47 1009.5
20260905224146 98 13 1.7 5.2 0.00 0.00 0.00 47 1009.5
20260905223646 97 276 1.7 3.5 0.00 0.00 0.00 46 1009.3
20260905223146 96 35 1.7 3.5 0.00 0.00 0.00 48 1009.3
20260905222646 96 84 1.7 4.3 0.00 0.00 0.00 49 1009.3
20260905222146 96 241 2.6 5.2 0.00 0.00 0.00 49 1009.3
20260905221646 99 105 4.3 7.8 0.00 0.00 0.00 44 1009.4
20260905221147 99 40 4.3 8.7 0.00 0.00 0.00 40 1009.4
20260905220646 100 316 4.3 9.6 0.00 0.00 0.00 41 1009.5
20260905220146 100 16 4.3 7.0 0.00 0.00 0.00 40 1009.4
20260905215646 100 346 5.2 10.4 0.00 0.00 0.00 40 1009.3
20260905215146 100 334 5.2 9.6 0.00 0.00 0.00 40 1009.2
20260905214646 100 1 4.3 8.7 0.00 0.00 0.00 40 1009.2
20260905214147 100 1 3.5 7.8 0.00 0.00 0.00 41 1009.3
20260905213647 100 293 3.5 8.7 0.00 0.00 0.00 42 1009.4
20260905213147 99 318 3.5 7.8 0.00 0.00 0.00 41 1009.5
20260905212647 99 314 4.3 7.8 0.00 0.00 0.00 41 1009.5
20260905212147 99 271 4.3 9.6 0.00 0.00 0.00 40 1009.5
20260905211647 99 318 3.5 7.0 0.00 0.00 0.00 40 1009.5
20260905211147 100 337 3.5 7.8 0.00 0.00 0.00 41 1009.5
20260905210647 100 310 4.3 8.7 0.00 0.00 0.00 39 1009.6
20260905210147 100 23 4.3 8.7 0.00 0.00 0.00 39 1009.7
20260905205647 101 72 4.3 10.4 0.00 0.00 0.00 40 1009.8
20260905205147 101 323 5.2 8.7 0.00 0.00 0.00 40 1009.6
20260905204647 101 348 5.2 11.3 0.00 0.00 0.00 40 1009.8
20260905204147 101 11 4.3 10.4 0.00 0.00 0.00 41 1009.7
20260905203647 101 342 3.5 7.0 0.00 0.00 0.00 41 1009.7
20260905203147 101 324 2.6 7.0 0.00 0.00 0.00 42 1009.8
20260905202647 101 303 2.6 6.1 0.00 0.00 0.00 41 1009.8
20260905202147 101 346 2.6 5.2 0.00 0.00 0.00 41 1009.9
20260905201647 101 317 2.6 7.0 0.00 0.00 0.00 41 1010.0
20260905201147 100 62 2.6 5.2 0.00 0.00 0.00 41 1010.0
20260905200647 99 296 2.6 5.2 0.00 0.00 0.00 44 1010.2
20260905200147 100 13 2.6 7.8 0.00 0.00 0.00 43 1010.2
20260905195647 100 317 3.5 7.0 0.00 0.00 0.00 41 1010.2
20260905195147 99 15 2.6 5.2 0.00 0.00 0.00 44 1010.2
20260905194647 100 331 2.6 7.0 0.00 0.00 0.00 41 1010.2
20260905194147 100 353 1.7 6.1 0.00 0.00 0.00 43 1010.3
20260905193647 99 340 2.6 3.5 0.00 0.00 0.00 43 1010.4
20260905193147 99 279 2.6 6.1 0.00 0.00 0.00 43 1010.5
20260905192647 100 301 2.6 5.2 0.00 0.00 0.00 43 1010.6
20260905192147 99 1 2.6 4.3 0.00 0.00 0.00 46 1010.6
20260905191647 99 53 2.6 5.2 0.00 0.00 0.00 45 1010.6
20260905191147 100 1 1.7 3.5 0.00 0.00 0.00 45 1010.6
20260905190647 101 68 2.6 6.1 0.00 0.00 0.00 44 1010.6
20260905190147 101 347 2.6 7.0 0.00 0.00 0.00 41 1010.7
20260905185647 100 300 2.6 5.2 0.00 0.00 0.00 42 1010.9
20260905185147 98 241 2.6 5.2 0.00 0.00 0.00 44 1011.0
20260905184647 97 13 3.5 5.2 0.00 0.00 0.00 44 1011.1
20260905184147 98 121 3.5 7.8 0.00 0.00 0.00 43 1011.2
20260905183647 100 341 2.6 7.0 0.00 0.00 0.00 43 1011.3
20260905183147 100 56 2.6 5.2 0.00 0.00 0.00 45 1011.2
20260905182647 99 305 2.6 6.1 0.00 0.00 0.00 45 1011.2
20260905182147 99 1 3.5 6.1 0.00 0.00 0.00 44 1011.3
20260905181647 99 58 4.3 10.4 0.00 0.00 0.00 46 1011.5
20260905181147 99 46 4.3 8.7 0.00 0.00 0.00 45 1011.4
20260905180647 100 329 3.5 7.8 0.00 0.00 0.00 44 1011.5
20260905180147 100 269 2.6 7.8 0.00 0.00 0.00 44 1011.5
20260905175647 99 20 2.6 4.3 0.00 0.00 0.00 46 1011.5
20260905175147 99 324 3.5 7.8 0.00 0.00 0.00 45 1011.5
20260905174647 99 336 3.5 7.0 0.00 0.00 0.00 45 1011.5
20260905174147 98 347 3.5 10.4 0.00 0.00 0.00 45 1011.7
20260905173647 98 321 4.3 10.4 0.00 0.00 0.00 48 1011.7
20260905173147 98 203 3.5 8.7 0.00 0.00 0.00 47 1011.8
20260905172647 97 319 2.6 7.8 0.00 0.00 0.00 48 1011.9
20260905172147 97 53 2.6 7.0 0.00 0.00 0.00 48 1011.9
20260905171647 97 56 3.5 7.0 0.00 0.00 0.00 51 1012.0
20260905171147 98 354 2.6 8.7 0.00 0.00 0.00 47 1012.1
20260905170647 98 341 1.7 7.8 0.00 0.00 0.00 52 1012.2
20260905170147 97 283 2.6 7.0 0.00 0.00 0.00 50 1012.2
20260905165647 97 65 2.6 7.0 0.00 0.00 0.00 50 1012.3
20260905165147 97 269 2.6 3.5 0.00 0.00 0.00 51 1012.3
20260905164647 97 342 2.6 4.3 0.00 0.00 0.00 49 1012.4
20260905164147 97 343 2.6 6.1 0.00 0.00 0.00 51 1012.4
20260905163647 96 324 2.6 7.8 0.00 0.00 0.00 52 1012.4
20260905163147 95 15 2.6 4.3 0.00 0.00 0.00 52 1012.4
20260905162647 95 163 2.6 6.1 0.00 0.00 0.00 52 1012.5
20260905162147 95 351 1.7 5.2 0.00 0.00 0.00 54 1012.7
20260905161647 95 56 2.6 4.3 0.00 0.00 0.00 53 1012.8
20260905161147 95 319 2.6 7.0 0.00 0.00 0.00 54 1012.9
20260905160647 95 343 1.7 7.8 0.00 0.00 0.00 54 1013.0
20260905160147 95 334 2.6 5.2 0.00 0.00 0.00 53 1013.1
20260905155647 95 316 3.5 8.7 0.00 0.00 0.00 54 1013.2
20260905155147 95 353 2.6 5.2 0.00 0.00 0.00 54 1013.0
20260905154647 95 318 2.6 4.3 0.00 0.00 0.00 54 1013.1
20260905154147 95 1 2.6 7.0 0.00 0.00 0.00 54 1013.2
20260905153647 95 323 1.7 7.0 0.00 0.00 0.00 53 1013.2
20260905153147 94 331 2.6 5.2 0.00 0.00 0.00 55 1013.1
20260905152647 94 295 1.7 5.2 0.00 0.00 0.00 56 1013.0
20260905152147 93 324 2.6 6.1 0.00 0.00 0.00 55 1012.9
20260905151647 93 329 2.6 5.2 0.00 0.00 0.00 56 1012.9
20260905151147 93 8 2.6 6.1 0.00 0.00 0.00 56 1013.0
20260905150647 92 89 2.6 6.1 0.00 0.00 0.00 58 1013.0
20260905150147 92 293 2.6 4.3 0.00 0.00 0.00 59 1013.1
20260905145647 91 193 2.6 5.2 0.00 0.00 0.00 58 1013.1
20260905145147 91 318 1.7 6.1 0.00 0.00 0.00 58 1013.2
20260905144647 91 20 2.6 5.2 0.00 0.00 0.00 59 1013.1
20260905144147 90 336 1.7 4.3 0.00 0.00 0.00 59 1013.2
20260905143647 90 344 2.6 4.3 0.00 0.00 0.00 61 1013.1
20260905143147 89 315 2.6 5.2 0.00 0.00 0.00 62 1013.1
20260905142647 88 304 2.6 6.1 0.00 0.00 0.00 62 1013.1
20260905142147 88 353 2.6 6.1 0.00 0.00 0.00 62 1013.1
20260905141647 88 27 1.7 4.3 0.00 0.00 0.00 63 1013.1
20260905141147 87 306 1.7 5.2 0.00 0.00 0.00 65 1013.0
20260905140647 87 295 1.7 2.6 0.00 0.00 0.00 66 1013.0
20260905140147 87 269 1.7 3.5 0.00 0.00 0.00 68 1013.0
20260905135647 86 314 1.7 3.5 0.00 0.00 0.00 68 1013.1
20260905135147 86 353 1.7 3.5 0.00 0.00 0.00 68 1013.1
20260905134647 85 223 0.9 2.6 0.00 0.00 0.00 72 1013.2
20260905134147 84 216 0.9 1.7 0.00 0.00 0.00 73 1013.2
20260905133647 84 178 0.9 1.7 0.00 0.00 0.00 73 1013.2
20260905133147 83 89 0.9 2.6 0.00 0.00 0.00 72 1013.3
20260905132647 83 178 0.9 2.6 0.00 0.00 0.00 74 1013.4
20260905132147 82 223 0.9 1.7 0.00 0.00 0.00 75 1013.3
20260905131647 81 223 0.9 1.7 0.00 0.00 0.00 77 1013.4
20260905131147 81 223 0.9 1.7 0.00 0.00 0.00 79 1013.4
20260905130647 81 213 1.7 1.7 0.00 0.00 0.00 79 1013.4
20260905130147 80 156 1.7 2.6 0.00 0.00 0.00 80 1013.4
20260905125647 80 72 1.7 2.6 0.00 0.00 0.00 81 1013.4
20260905125147 79 117 1.7 3.5 0.00 0.00 0.00 82 1013.4
20260905124647 79 102 1.7 3.5 0.00 0.00 0.00 83 1013.5
20260905124147 79 79 1.7 2.6 0.00 0.00 0.00 84 1013.5
20260905123647 78 105 1.7 3.5 0.00 0.00 0.00 84 1013.5
20260905123147 78 89 1.7 3.5 0.00 0.00 0.00 85 1013.6
20260905122647 78 79 1.7 3.5 0.00 0.00 0.00 85 1013.5
20260905122147 77 76 1.7 2.6 0.00 0.00 0.00 85 1013.5
20260905121647 77 68 1.7 2.6 0.00 0.00 0.00 86 1013.4
20260905121147 77 81 1.7 3.5 0.00 0.00 0.00 86 1013.3
20260905120647 77 102 1.7 3.5 0.00 0.00 0.00 85 1013.3
20260905120147 78 105 0.9 2.6 0.00 0.00 0.00 84 1013.2
20260905115647 77 89 0.9 1.7 0.00 0.00 0.00 85 1013.1
20260905115147 77 145 0.9 1.7 0.00 0.00 0.00 85 1013.0
20260905114647 77 178 0.9 1.7 0.00 0.00 0.00 85 1013.0
20260905114147 77 46 0.9 0.9 0.00 0.00 0.00 85 1013.0
20260905113647 77 269 0.9 1.7 0.00 0.00 0.00 84 1013.0
20260905113148 77 46 0.9 1.7 0.00 0.00 0.00 86 1012.9
20260905112648 77 46 0.0 0.9 0.00 0.00 0.00 86 1012.9
20260905112147 76 46 0.0 1.7 0.00 0.00 0.00 87 1012.8
20260905111648 76 1 0.0 0.9 0.00 0.00 0.00 88 1012.8
20260905111148 76 46 0.9 1.7 0.00 0.00 0.00 88 1012.7
20260905110647 76 46 0.9 1.7 0.00 0.00 0.00 88 1012.7
20260905110148 76 269 0.0 0.9 0.00 0.00 0.00 88 1012.7
20260905105648 76 63 0.0 0.9 0.00 0.00 0.00 88 1012.6
20260905105148 76 46 0.0 0.9 0.00 0.00 0.00 88 1012.5